Zurück zum Katalog

STARLINK-30588

AktivKommunikationVLEO
NORAD 58062·PAYLOAD·🇺🇸 United States

Gestartet Oct 13, 2023 von Cape Canaveral Space Force Station

Loading…

Nächste Überflüge (nächste 24 Stunden)

TLE

AktuellSource: CelesTrak SupGP

Epoche: Sep 14, 2026, 13:52 UTC

1 58062C 23158M   26257.57826389 -.00043079  00000+0 -15607-2 0  2572
2 58062  43.0009  40.2758 0001468 267.1629 262.9445 15.27592662    15

Verfolge STARLINK-30588 in Echtzeit mit AllMySat

Download on the App Store